Location: Arrodets-la-Barthe
(43.0306°N, 0.2829°E)
Time: 14:38:11
(UTC+00:00)

Cosmos 2322 Rocket - Pass Details

Date: 24 October 2021
Orbit: 832 x 852 km, 71.0° (Epoch: 07 December)

Event Time Altitude Azimuth Distance (km) Brightness Sun altitude
Rises 19:46:46 0° 245° (WSW) 3,368 6.0 -30.7°
Reaches altitude 10° 19:49:47 10° 261° (W) 2,439 5.4 -31.2°
Maximum altitude 19:53:59 21° 310° (NW) 1,778 4.4 -31.9°
Drops below altitude 10° 19:58:13 10° 359° (N) 2,454 4.7 -32.7°
Enters shadow 20:00:02 - 10° (N) 2,993 5.1 -33.0°
